Location: Archemont
(49.1579°N, 1.7598°E)
Time: 21:55:58
(UTC+00:00)

SR - Visible Passes

Search period start: 12 April 2024 00:00
Search period end: 22 April 2024 00:00
Orbit: 576 x 864 km, 66.7° (Epoch: 12 April)

Date Brightness Start Highest point End Pass type
(mag) Time Alt. Az. Time Alt. Az. Time Alt. Az.
12 Apr ? 03:20:55 14° S 03:25:26 49° ESE 03:30:29 10° NE visible
13 Apr ? 02:30:35 17° SSE 02:33:38 26° ESE 02:37:59 10° ENE visible
13 Apr ? 04:09:51 10° SW 04:15:16 62° NW 04:20:23 10° NNE visible
14 Apr ? 01:40:11 12° SE 01:42:00 14° ESE 01:44:37 10° ENE visible
14 Apr ? 03:19:26 21° SSW 03:23:11 76° ESE 03:28:23 10° NE visible
15 Apr ? 02:28:58 28° SSE 02:31:16 41° ESE 02:36:08 10° NE visible
15 Apr ? 04:08:13 11° WSW 04:13:12 42° NW 04:18:04 10° NNE visible
16 Apr ? 01:38:26 21° SE 01:39:29 22° ESE 01:43:29 10° ENE visible
16 Apr ? 03:17:40 24° SW 03:21:00 73° NW 03:26:09 10° NNE visible
17 Apr ? 00:47:50 11° ESE 00:47:53 11° ESE 00:49:19 10° E visible
17 Apr ? 02:27:04 40° S 02:28:56 64° ESE 02:34:04 10° NE visible
17 Apr ? 04:06:28 10° W 04:11:12 30° NW 04:15:39 10° NNE visible
18 Apr ? 01:36:26 33° SE 01:37:03 34° ESE 01:41:44 10° NE visible
18 Apr ? 03:15:40 22° WSW 03:18:52 49° NW 03:23:48 10° NNE visible
19 Apr ? 00:45:44 18° ESE 00:45:44 18° ESE 00:48:51 10° ENE visible
19 Apr ? 02:24:58 45° SW 02:26:42 84° NW 02:31:50 10° NE visible
19 Apr ? 04:05:08 10° W 04:09:16 22° NW 04:13:11 10° NNE visible
20 Apr ? 01:34:13 52° SE 01:34:40 54° ESE 01:39:42 10° NE visible
20 Apr ? 03:13:27 18° W 03:16:48 34° NW 03:21:23 10° NNE visible
21 Apr ? 00:43:25 28° E 00:43:25 28° E 00:47:14 10° NE visible
21 Apr ? 02:22:39 37° WSW 02:24:30 56° NW 02:29:30 10° NNE visible
21 Apr ? 04:04:00 10° WNW 04:07:24 17° NNW 04:10:39 10° NNE visible
21 Apr ? 23:52:35 14° E 23:52:35 14° E 23:54:02 10° ENE visible
